When you browse on this site, cookies collect data to enhance your experience and personalize the content and advertising you see.
Visit our Privacy Policy to learn more. By continuing to use the site, you agree to this use of cookies and data.
  • In United Kingdom
  • List of Countries
  • For 7 days
  • Water Temperature
  • Weather Map
  • Weather Widgets
  • user-avatar
    Login

    Hourly Weather Hajduszoboszlo

    Today, 27 February, Thursday

    Time Temperature Precipitation Wind Pressure Humidity
    00:00 +4°C° 0 mm 2 mps 741 mmHg 78%
    01:00 +4°C° 0 mm 2 mps 741 mmHg 76%
    02:00 +4°C° 0 mm 2 mps 741 mmHg 77%
    03:00 +4°C° 0 mm 2 mps 742 mmHg 78%
    04:00 +5°C° 0 mm 1 mps 742 mmHg 80%
    05:00 +4°C° 0 mm 2 mps 742 mmHg 81%
    06:00 +3°C° 0 mm 2 mps 742 mmHg 82%
    07:00 +2°C° 0 mm 3 mps 743 mmHg 82%
    08:00 +4°C° 0 mm 2 mps 743 mmHg 78%
    09:00 +5°C° 0 mm 2 mps 744 mmHg 73%
    10:00 +6°C° 0 mm 2 mps 744 mmHg 68%
    11:00 +6°C° 0.2 mm 2 mps 745 mmHg 71%
    12:00 +5°C° 0.2 mm 3 mps 745 mmHg 74%
    13:00 +5°C° 0.2 mm 3 mps 745 mmHg 77%
    14:00 +6°C° 0.2 mm 2 mps 745 mmHg 76%
    15:00 +6°C° 0.2 mm 2 mps 745 mmHg 74%
    16:00 +6°C° 0.2 mm 2 mps 745 mmHg 72%
    17:00 +5°C° 0 mm 2 mps 745 mmHg 75%
    18:00 +4°C° 0 mm 2 mps 745 mmHg 77%
    19:00 +3°C° 0 mm 3 mps 746 mmHg 79%
    20:00 +2°C° 0 mm 3 mps 746 mmHg 78%
    21:00 +2°C° 0 mm 3 mps 745 mmHg 78%
    22:00 +2°C° 0 mm 3 mps 745 mmHg 77%
    23:00 +2°C° 0 mm 3 mps 745 mmHg 77%

    Tomorrow, 28 February, Friday

    Time Temperature Precipitation Wind Pressure Humidity
    00:00 +1°C° 0 mm 4 mps 745 mmHg 77%
    01:00 +1°C° 0 mm 4 mps 745 mmHg 77%
    02:00 +1°C° 0.2 mm 5 mps 745 mmHg 79%
    03:00 0°C° 0.2 mm 5 mps 744 mmHg 81%
    04:00 -1°C° 0.2 mm 6 mps 744 mmHg 84%
    05:00 -1°C° 1 mm 6 mps 744 mmHg 88%
    06:00 -1°C° 1 mm 6 mps 743 mmHg 92%
    07:00 -1°C° 1 mm 7 mps 743 mmHg 96%
    08:00 -1°C° 1.2 mm 6 mps 743 mmHg 96%
    09:00 -1°C° 1.2 mm 5 mps 743 mmHg 97%
    10:00 0°C° 1.2 mm 3 mps 744 mmHg 97%
    11:00 +1°C° 0.6 mm 3 mps 744 mmHg 97%
    12:00 +2°C° 0.6 mm 2 mps 745 mmHg 96%
    13:00 +4°C° 0.6 mm 1 mps 745 mmHg 95%
    14:00 +3°C° 0.4 mm 2 mps 746 mmHg 96%
    15:00 +2°C° 0.4 mm 3 mps 747 mmHg 96%
    16:00 +1°C° 0.4 mm 4 mps 748 mmHg 96%
    17:00 +1°C° 0 mm 4 mps 749 mmHg 93%
    18:00 +1°C° 0 mm 3 mps 750 mmHg 91%
    19:00 +1°C° 0 mm 3 mps 751 mmHg 88%
    20:00 +1°C° 0 mm 3 mps 752 mmHg 85%
    21:00 +1°C° 0 mm 3 mps 752 mmHg 83%
    22:00 +1°C° 0 mm 3 mps 753 mmHg 80%
    23:00 0°C° 0 mm 3 mps 754 mmHg 80%

    Day after tomorrow, 29 February, Saturday

    Time Temperature Precipitation Wind Pressure Humidity
    00:00 0°C° 0 mm 3 mps 754 mmHg 81%
    01:00 0°C° 0 mm 3 mps 755 mmHg 81%
    02:00 -1°C° 0 mm 2 mps 755 mmHg 81%
    03:00 -1°C° 0 mm 2 mps 755 mmHg 81%
    04:00 +1°C° 0 mm 1 mps 755 mmHg 80%
    05:00 +1°C° 0 mm 1 mps 755 mmHg 79%
    06:00 +1°C° 0 mm 1 mps 755 mmHg 78%
    07:00 +2°C° 0 mm 1 mps 756 mmHg 78%
    08:00 +2°C° 0 mm 2 mps 755 mmHg 75%
    09:00 +2°C° 0 mm 3 mps 755 mmHg 72%
    10:00 +4°C° 0 mm 4 mps 755 mmHg 70%
    11:00 +4°C° 0 mm 4 mps 755 mmHg 67%
    12:00 +5°C° 0 mm 5 mps 755 mmHg 64%
    13:00 +6°C° 0 mm 5 mps 754 mmHg 61%
    14:00 +6°C° 0 mm 5 mps 754 mmHg 63%
    15:00 +6°C° 0 mm 5 mps 753 mmHg 64%
    16:00 +6°C° 0 mm 5 mps 753 mmHg 66%
    17:00 +5°C° 0 mm 5 mps 753 mmHg 70%
    18:00 +3°C° 0 mm 5 mps 753 mmHg 73%
    19:00 +3°C° 0 mm 4 mps 752 mmHg 77%
    20:00 +3°C° 0 mm 4 mps 752 mmHg 76%
    21:00 +1°C° 0 mm 4 mps 752 mmHg 75%
    22:00 +1°C° 0 mm 4 mps 752 mmHg 74%
    23:00 +1°C° 0 mm 4 mps 751 mmHg 73%

    1 March, Sunday

    Time Temperature Precipitation Wind Pressure Humidity
    00:00 +2°C° 0 mm 5 mps 751 mmHg 72%
    01:00 +2°C° 0 mm 5 mps 750 mmHg 71%
    02:00 +2°C° 0 mm 5 mps 750 mmHg 69%
    03:00 +2°C° 0 mm 5 mps 750 mmHg 68%
    04:00 +2°C° 0 mm 6 mps 750 mmHg 66%
    05:00 +2°C° 0 mm 5 mps 750 mmHg 67%
    06:00 +2°C° 0 mm 5 mps 750 mmHg 67%
    07:00 +2°C° 0 mm 5 mps 750 mmHg 68%
    08:00 +3°C° 0.1 mm 5 mps 750 mmHg 68%
    09:00 +3°C° 0.1 mm 5 mps 750 mmHg 68%
    10:00 +5°C° 0.1 mm 5 mps 750 mmHg 68%
    11:00 +5°C° 0 mm 5 mps 750 mmHg 67%
    12:00 +5°C° 0 mm 6 mps 750 mmHg 66%
    13:00 +7°C° 0 mm 6 mps 750 mmHg 64%
    14:00 +7°C° 0 mm 5 mps 750 mmHg 66%
    15:00 +7°C° 0 mm 5 mps 750 mmHg 67%
    16:00 +7°C° 0 mm 4 mps 750 mmHg 68%
    17:00 +7°C° 0 mm 4 mps 750 mmHg 71%
    18:00 +7°C° 0 mm 3 mps 750 mmHg 73%
    19:00 +7°C° 0 mm 3 mps 750 mmHg 75%
    20:00 +7°C° 0 mm 3 mps 749 mmHg 74%
    21:00 +5°C° 0 mm 3 mps 749 mmHg 73%
    22:00 +5°C° 0 mm 4 mps 748 mmHg 72%
    23:00 +5°C° 0.3 mm 4 mps 748 mmHg 75%

    2 March, Monday

    Time Temperature Precipitation Wind Pressure Humidity
    00:00 +5°C° 0.3 mm 4 mps 747 mmHg 78%
    01:00 +5°C° 0.3 mm 5 mps 747 mmHg 81%
    02:00 +6°C° 0.6 mm 5 mps 746 mmHg 83%
    03:00 +5°C° 0.6 mm 6 mps 745 mmHg 86%
    04:00 +5°C° 0.6 mm 6 mps 745 mmHg 89%
    05:00 +7°C° 0.5 mm 6 mps 744 mmHg 88%
    06:00 +6°C° 0.5 mm 7 mps 744 mmHg 86%
    07:00 +6°C° 0.5 mm 7 mps 743 mmHg 85%
    08:00 +6°C° 0.7 mm 7 mps 743 mmHg 86%
    09:00 +6°C° 0.7 mm 8 mps 742 mmHg 87%
    10:00 +6°C° 0.7 mm 8 mps 742 mmHg 89%
    11:00 +6°C° 1 mm 8 mps 742 mmHg 88%
    12:00 +7°C° 1 mm 8 mps 742 mmHg 88%
    13:00 +8°C° 1 mm 7 mps 741 mmHg 87%
    14:00 +8°C° 0.4 mm 6 mps 741 mmHg 87%
    15:00 +8°C° 0.4 mm 6 mps 741 mmHg 88%
    16:00 +8°C° 0.4 mm 5 mps 742 mmHg 88%
    17:00 +7°C° 0.1 mm 5 mps 742 mmHg 87%
    18:00 +7°C° 0.1 mm 5 mps 743 mmHg 85%
    19:00 +6°C° 0.1 mm 5 mps 744 mmHg 84%
    20:00 +6°C° 0 mm 5 mps 744 mmHg 85%
    21:00 +5°C° 0 mm 4 mps 745 mmHg 86%
    22:00 +4°C° 0 mm 4 mps 746 mmHg 87%
    23:00 +4°C° 0 mm 3 mps 746 mmHg 88%

    3 March, Tuesday

    Time Temperature Precipitation Wind Pressure Humidity
    00:00 +5°C° 0 mm 2 mps 746 mmHg 88%
    01:00 +4°C° 0 mm 2 mps 746 mmHg 89%
    02:00 +4°C° 0 mm 2 mps 746 mmHg 89%
    03:00 +4°C° 0 mm 2 mps 746 mmHg 89%
    04:00 +4°C° 0 mm 2 mps 746 mmHg 90%
    05:00 +5°C° 0 mm 2 mps 746 mmHg 90%
    06:00 +4°C° 0 mm 3 mps 745 mmHg 90%
    07:00 +4°C° 0 mm 3 mps 745 mmHg 90%
    08:00 +5°C° 0.2 mm 3 mps 745 mmHg 88%
    09:00 +6°C° 0.2 mm 4 mps 744 mmHg 85%
    10:00 +7°C° 0.2 mm 4 mps 744 mmHg 83%
    11:00 +7°C° 0.7 mm 4 mps 743 mmHg 82%
    12:00 +8°C° 0.7 mm 4 mps 743 mmHg 80%
    13:00 +10°C° 0.7 mm 4 mps 742 mmHg 79%
    14:00 +10°C° 0.3 mm 4 mps 742 mmHg 80%
    15:00 +10°C° 0.3 mm 4 mps 742 mmHg 82%
    16:00 +10°C° 0.3 mm 4 mps 741 mmHg 83%
    17:00 +8°C° 0.4 mm 5 mps 742 mmHg 85%
    18:00 +8°C° 0.4 mm 5 mps 742 mmHg 86%
    19:00 +7°C° 0.4 mm 6 mps 742 mmHg 88%
    20:00 +5°C° 0 mm 6 mps 743 mmHg 88%
    21:00 +4°C° 0 mm 7 mps 743 mmHg 88%
    22:00 +3°C° 0 mm 7 mps 743 mmHg 89%
    23:00 +3°C° 0 mm 7 mps 744 mmHg 88%
    Show more